Погода в Сан-Хосе

Коста-Рика     9°56′05″N   84°05′04″W
темп.,
°C
ветер,
м/с
пор.,
м/с
влажн.,
%
обл.,
%
осадки,
мм/ч
давл.,
гПа
погр.,
м
30 ноября, вт
вт3000:00+15всв259999 2.3 1015267
03:00+15св2499100 4.3 1013284
06:00+16св2599100 12.1 1015337
09:00+16всв2599100 11.6 1017375
12:00+16св2599100 16.8 1015527
15:00+15св2599100 1.0 1013600
18:00+15всв3599100 1.9 1015484
21:00+15всв259989 0.6 1018335
1 декабря, ср
ср100:00+14всв259995 0.7 1016251
03:00+14всв249979 0.1 1015257
06:00+15всв2599100 0.2 1017283
09:00+16всв3593100 0.4 1018467
12:00+19св347751 1.3 1016921
15:00+18св3480100 0.6 1014727
18:00+14всв2498100 0.7 1017131
21:00+13всв2597100 0.0 1018116
2 декабря, чт
чт200:00+13всв249631 0.0 1017111
03:00+13всв3596100 0.0 1016188
06:00+14всв379848 0.0 1017310
09:00+19всв367553 0.0 1017876
12:00+21св466392 0.1 10141408
15:00+19св357172 0.2 10131052
18:00+14всв259939 0.2 1015169
21:00+12всв359543 0.0 1017142
3 декабря, пт
пт300:00+12всв3590100 0.0 1016109
03:00+12всв259394 0.0 101495
06:00+13всв249720 0.0 101691
09:00+15всв2496100 0.7 1017204
12:00+16всв2596100 1.8 1014275
15:00+18св2486100 0.5 1012588
18:00+16всв3598100 1.1 1014392
21:00+14всв3799100 0.2 1016290
4 декабря, сб
сб400:00+13всв369873 0.2 1015151
03:00+13всв259878 0.0 1014178
06:00+13всв3697100 0.0 1015173
09:00+19всв356980 0.0 1016874
12:00+20всв3559100 0.0 10131305
15:00+19св3464100 0.0 1012718
18:00+13в249334 0.0 101588
21:00+13в368860 0.0 1016113